Las Vegas, NV

6:19 PM PST on February 20, 2017 (GMT -0800)
McCarran International

Weather History for KLAS - February, 2014

Change the Weather History Date:

Thursday, February 27, 2014

  Actual Average Record
Temperature  
Mean Temperature 66 °F 56 °F  
Max Temperature 72 °F 66 °F 83 °F (1986)
Min Temperature 59 °F 46 °F 19 °F (1971)
Degree Days  
Heating Degree Days 0 9  
Month to date heating degree days 212 330  
Since 1 July heating degree days 1376 1682  
Cooling Degree Days 1 0  
Month to date cooling degree days 3 0  
Year to date cooling degree days 3 0  
Growing Degree Days 16 (Base 50)    
Moisture  
Dew Point 30 °F    
Average Humidity 31    
Maximum Humidity 46    
Minimum Humidity 15    
Precipitation  
Precipitation T in 0.02 in 0.65 in (2001)
Month to date precipitation T 0.73  
Year to date precipitation T 1.27  
Snow  
Snow 0.00 in 0.00 in T in (2004)
Month to date snowfall 0.0 0.1  
Since 1 July snowfall 0.0 0.3  
Snow Depth 0.00 in    
Sea Level Pressure  
Sea Level Pressure 29.73 in    
Wind  
Wind Speed 17 mph (SSW)    
Max Wind Speed 31 mph    
Max Gust Speed 40 mph    
Visibility 10 miles    
Events Rain    
T = Trace of Precipitation, MM = Missing Value Source: NWS Daily Summary

Daily Weather History Graph

Daily Weather History Graph

Search for Another Location

Airport or City:

Trip Planner

Search our weather history database for the weather conditions in past years. The results will help you decide how hot, cold, wet, or windy it might be!

Date:

Astronomy

Feb. 27, 2014 Rise Set
Actual Time 6:13 AM PST 5:33 PM PST
Civil Twilight 5:47 AM PST 5:59 PM PST
Nautical Twilight 5:17 AM PST 6:29 PM PST
Astronomical Twilight 4:48 AM PST 6:59 PM PST
Moon 4:46 AM PST (2/27) 4:05 PM PST (2/27)
Length of Visible Light 12h 12m
Length of Day
11h 20m
Waning Crescent, 3% of the Moon is Illuminated
Feb 27
Waning Crescent
Mar 1
New
Mar 8
First Quarter
Mar 16
Full
Mar 23
Last Quarter

Hourly Weather History & Observations

Time (PST) Temp. Dew Point Humidity Pressure Visibility Wind Dir Wind Speed Gust Speed Precip Events Conditions
12:56 AM 61.0 °F 39.0 °F 44% 29.80 in 10.0 mi South 13.8 mph 23.0 mph N/A   Mostly Cloudy
1:56 AM 60.1 °F 39.9 °F 47% 29.77 in 10.0 mi South 10.4 mph - N/A   Mostly Cloudy
2:56 AM 60.1 °F 39.9 °F 47% 29.74 in 10.0 mi South 12.7 mph - N/A   Scattered Clouds
3:56 AM 60.1 °F 39.9 °F 47% 29.72 in 10.0 mi South 20.7 mph 25.3 mph N/A   Mostly Cloudy
4:56 AM 61.0 °F 39.9 °F 46% 29.73 in 10.0 mi SSW 15.0 mph 21.9 mph N/A   Mostly Cloudy
5:56 AM 60.1 °F 39.9 °F 47% 29.73 in 10.0 mi South 15.0 mph - N/A   Mostly Cloudy
6:56 AM 61.0 °F 39.9 °F 46% 29.74 in 10.0 mi SSW 15.0 mph - N/A   Scattered Clouds
7:56 AM 64.0 °F 39.9 °F 41% 29.75 in 10.0 mi SSW 17.3 mph 31.1 mph N/A   Scattered Clouds
8:34 AM 64.4 °F 41.0 °F 42% 29.79 in 10.0 mi SW 20.7 mph 32.2 mph 0.00 in Rain Light Rain
8:56 AM 64.9 °F 42.1 °F 43% 29.76 in 10.0 mi SW 17.3 mph 36.8 mph 0.00 in   Mostly Cloudy
9:56 AM 66.0 °F 37.0 °F 34% 29.75 in 10.0 mi WSW 15.0 mph 33.4 mph N/A   Scattered Clouds
10:29 AM 66.2 °F 33.8 °F 30% 29.77 in 10.0 mi SSW 21.9 mph 36.8 mph N/A   Scattered Clouds
10:56 AM 68.0 °F 28.9 °F 23% 29.75 in 10.0 mi SW 27.6 mph 36.8 mph N/A   Scattered Clouds
11:56 AM 69.1 °F 25.0 °F 19% 29.74 in 10.0 mi WSW 16.1 mph 29.9 mph N/A   Scattered Clouds
12:56 PM 69.1 °F 25.0 °F 19% 29.71 in 10.0 mi SW 21.9 mph 32.2 mph N/A   Scattered Clouds
1:56 PM 71.1 °F 24.1 °F 17% 29.70 in 10.0 mi WSW 21.9 mph 28.8 mph N/A   Partly Cloudy
2:56 PM 71.1 °F 21.9 °F 16% 29.70 in 10.0 mi WSW 23.0 mph 29.9 mph N/A   Partly Cloudy
3:56 PM 71.1 °F 21.0 °F 15% 29.68 in 10.0 mi WSW 24.2 mph 28.8 mph N/A   Scattered Clouds
4:56 PM 69.1 °F 19.0 °F 15% 29.69 in 10.0 mi WSW 19.6 mph 24.2 mph N/A   Mostly Cloudy
5:56 PM 66.9 °F 18.0 °F 15% 29.70 in 10.0 mi WSW 17.3 mph - N/A   Mostly Cloudy
6:56 PM 66.0 °F 19.9 °F 17% 29.70 in 10.0 mi SSW 11.5 mph - N/A   Scattered Clouds
7:56 PM 64.0 °F 21.0 °F 19% 29.70 in 10.0 mi SSW 9.2 mph - N/A   Mostly Cloudy
8:56 PM 62.1 °F 23.0 °F 22% 29.71 in 10.0 mi SSW 13.8 mph - N/A   Scattered Clouds
9:56 PM 59.0 °F 24.1 °F 26% 29.73 in 10.0 mi South 15.0 mph - N/A   Mostly Cloudy
10:56 PM 60.1 °F 21.9 °F 23% 29.73 in 10.0 mi SSW 12.7 mph - N/A   Mostly Cloudy
11:56 PM 59.0 °F 21.0 °F 23% 29.72 in 10.0 mi South 10.4 mph - N/A   Overcast